This demonstration page uses our WeatherBlox Daily Observations layout. Learn more.

Left ArrowRight Arrow

30.00354, -91.81873

Hourly Observations for August 17, 2022

Temp ( °F °C ) Dew Point ( °F °C ) Humidity (%) Winds ( mph kmh ) Pressure ( in mb ) Visibility ( mi km ) Precip ( " mm )
1:53 am 01:53 Mostly Clear 77 25 74 23.3 90 90 Calm 29.92 1013 10 16 0.00 0.00
2:53 am 02:53 Clear 77 25 74 23.3 90 90 WSW 3 6 29.92 1013 10 16 0.00 0.00
3:53 am 03:53 Clear 78 25.6 74 23.3 87 87 WSW 5 7 29.93 1014 10 16 0.00 0.00
4:53 am 04:53 Clear 77 25 73 22.8 88 88 WSW 3 6 29.94 1014 10 16 0.00 0.00
5:53 am 05:53 Clear 76 24.4 74 23.3 94 94 Calm 29.96 1014 10 16 0.00 0.00
6:53 am 06:53 Sunny 76 24.4 73 22.8 91 91 Calm 29.98 1015 10 16 0.00 0.00
7:53 am 07:53 Sunny 80 26.7 76 24.4 87 87 Calm 29.99 1016 10 16 0.00 0.00
8:53 am 08:53 Sunny 83 28.3 76 24.4 79 79 W 7 11 30.00 1016 10 16 0.00 0.00
9:53 am 09:53 Sunny 87 30.6 77 25 72 72 WNW 8 13 29.99 1016 10 16 0.00 0.00
10:18 am 10:18 Hazy 88 31.1 76 24.4 68 68 W 10 17 30.00 1016 2 2 0.00 0.00
10:25 am 10:25 Partly Cloudy 88 31.1 76 24.4 68 68 WNW 9 15 30.00 1016 7 11 0.00 0.00
10:53 am 10:53 Partly Cloudy 89 31.7 76 24.4 65 65 WNW 9 15 30.00 1016 7 11 0.00 0.00
11:53 am 11:53 undefined 90 32.2 75 23.9 62 62 undefined N/A 29.99 1016 N/A 0.00 0.00
12:27 pm 12:27 Mostly Sunny 91 32.8 74 23.3 58 58 WNW 9 15 29.99 1015 10 16 0.00 0.00
12:53 pm 12:53 Sunny 92 33.3 74 23.3 56 56 W 10 17 29.98 1015 10 16 0.00 0.00
1:53 pm 13:53 Sunny 91 32.8 73 22.8 56 56 W 9 15 29.97 1015 10 16 0.00 0.00
2:53 pm 14:53 Sunny 93 33.9 71 21.7 49 49 VRB 3 6 29.95 1014 10 16 0.00 0.00
3:53 pm 15:53 Sunny 95 35 71 21.7 46 46 W 5 7 29.93 1014 10 16 0.00 0.00
4:53 pm 16:53 Partly Cloudy 94 34.4 73 22.8 51 51 W 6 9 29.92 1013 10 16 0.00 0.00
5:53 pm 17:53 Mostly Sunny 89 31.7 76 24.4 65 65 SSW 9 15 29.92 1013 10 16 0.00 0.00
6:53 pm 18:53 Sunny 89 31.7 76 24.4 65 65 SW 8 13 29.91 1013 10 16 0.00 0.00
7:53 pm 19:53 Clear 85 29.4 75 23.9 72 72 SW 5 7 29.91 1013 10 16 0.00 0.00
8:53 pm 20:53 Clear 83 28.3 76 24.4 79 79 SW 5 7 29.93 1014 10 16 0.00 0.00
9:53 pm 21:53 Clear 82 27.8 76 24.4 82 82 Calm 29.94 1014 10 16 0.00 0.00
10:53 pm 22:53 Clear 81 27.2 76 24.4 85 85 Calm 29.95 1014 10 16 0.00 0.00
11:53 pm 23:53 Clear 79 26.1 76 24.4 90 90 Calm 29.94 1014 10 16 0.00 0.00

Powered by AerisWeather